Portsmouth, NH

6:19 AM EDT on May 28, 2018 (GMT -0400)
Pease International Tradeport

Weather History for KPSM - February, 2013

Change the Weather History Date:

Monday, February 4, 2013

  Actual Average Record
Temperature  
Mean Temperature 25 °F -  
Max Temperature 30 °F 33 °F 61 °F (1991)
Min Temperature 19 °F 17 °F -10 °F (1978)
Degree Days  
Heating Degree Days 40    
Moisture  
Dew Point 5 °F    
Average Humidity 45    
Maximum Humidity 72    
Minimum Humidity 28    
Precipitation  
Precipitation 0.00 in - - ()
Sea Level Pressure  
Sea Level Pressure 29.76 in    
Wind  
Wind Speed 11 mph (West)    
Max Wind Speed 21 mph    
Max Gust Speed 32 mph    
Visibility 10 miles    
Events      
Averages and records for this station are not official NWS values.
T = Trace of Precipitation, MM = Missing Value Source: NWS Daily Summary

Daily Weather History Graph

Daily Weather History Graph

Search for Another Location

Airport or City:

Astronomy

Feb. 04, 2013 Rise Set
Actual Time 6:54 AM EST 5:00 PM EST
Civil Twilight 6:24 AM EST 5:30 PM EST
Nautical Twilight 5:51 AM EST 6:03 PM EST
Astronomical Twilight 5:18 AM EST 6:37 PM EST
Moon 1:28 AM EST (2/4) 11:18 AM EST (2/4)
Length of Visible Light 11h 05m
Length of Day
10h 05m
Last Quarter, 37% of the Moon is Illuminated
Feb 4
Last Quarter
Feb 10
New
Feb 17
First Quarter
Feb 25
Full
Mar 4
Last Quarter

Hourly Weather History & Observations

Time (EST) Temp. Windchill Dew Point Humidity Pressure Visibility Wind Dir Wind Speed Gust Speed Precip Events Conditions
12:55 AM 24.6 °F 15.8 °F 14.5 °F 66% 29.70 in 10.0 mi West 8.1 mph - N/A   Overcast
1:55 AM 24.3 °F 17.3 °F 14.2 °F 65% 29.70 in 10.0 mi West 5.8 mph - N/A   Overcast
2:55 AM 23.0 °F 15.8 °F 14.5 °F 70% 29.69 in 10.0 mi West 5.8 mph - N/A   Mostly Cloudy
3:55 AM 21.2 °F 11.7 °F 13.3 °F 72% 29.69 in 10.0 mi WNW 8.1 mph - N/A   Partly Cloudy
5:55 AM 21.2 °F 11.7 °F 11.8 °F 67% 29.71 in 10.0 mi West 8.1 mph - N/A   Mostly Cloudy
6:55 AM 20.5 °F 10.0 °F 11.5 °F 68% 29.72 in 10.0 mi West 9.2 mph - N/A   Partly Cloudy
7:55 AM 22.8 °F 12.2 °F 12.2 °F 64% 29.73 in 10.0 mi West 10.4 mph - N/A   Partly Cloudy
8:55 AM 24.6 °F 13.8 °F 10.2 °F 54% 29.73 in 10.0 mi West 11.5 mph 21.9 mph N/A   Partly Cloudy
9:55 AM 25.7 °F 12.7 °F 5.4 °F 42% 29.74 in 10.0 mi NW 17.3 mph 23.0 mph N/A   Mostly Cloudy
10:55 AM 28.4 °F 17.0 °F 3.7 °F 35% 29.74 in 10.0 mi WNW 15.0 mph 26.5 mph N/A   Mostly Cloudy
11:55 AM 29.1 °F 17.1 °F 2.3 °F 32% 29.72 in 10.0 mi West 17.3 mph 26.5 mph N/A   Mostly Cloudy
12:55 PM 30.7 °F 18.5 °F 0.9 °F 28% 29.71 in 10.0 mi WSW 19.6 mph 26.5 mph N/A   Mostly Cloudy
1:55 PM 30.0 °F 17.2 °F -0.0 °F 28% 29.71 in 10.0 mi West 20.7 mph 28.8 mph N/A   Scattered Clouds
2:55 PM 29.1 °F 16.7 °F 0.7 °F 30% 29.72 in 10.0 mi West 18.4 mph 26.5 mph N/A   Scattered Clouds
3:55 PM 28.2 °F 15.9 °F 0.5 °F 30% 29.73 in 10.0 mi WSW 17.3 mph 26.5 mph N/A   Scattered Clouds
4:55 PM 26.6 °F 13.4 °F -2.0 °F 29% 29.75 in 10.0 mi West 18.4 mph 32.2 mph N/A   Partly Cloudy
5:55 PM 25.5 °F 11.6 °F -1.7 °F 31% 29.77 in 10.0 mi West 19.6 mph 27.6 mph N/A   Partly Cloudy
6:55 PM 24.4 °F 12.4 °F 0.1 °F 35% 29.81 in 10.0 mi West 13.8 mph - N/A   Clear
7:55 PM 23.2 °F 12.6 °F 0.7 °F 38% 29.83 in 10.0 mi West 10.4 mph - N/A   Clear
8:55 PM 22.8 °F 9.4 °F -0.4 °F 36% 29.85 in 10.0 mi West 16.1 mph 23.0 mph N/A   Clear
9:55 PM 21.7 °F 9.0 °F -1.1 °F 37% 29.87 in 10.0 mi West 13.8 mph 20.7 mph N/A   Clear
10:55 PM 21.0 °F 8.6 °F -1.3 °F 38% 29.88 in 10.0 mi WSW 12.7 mph 21.9 mph N/A   Clear
11:55 PM 19.6 °F 8.1 °F -1.1 °F 40% 29.89 in 10.0 mi West 10.4 mph - N/A   Clear